• MPC Preparation (Info)

  • MPEC 2024-C173 : 2024 CO5

    The following Minor Planet Electronic Circular may be linked-to from your own Web pages, but must not otherwise be redistributed electronically.

    A form allowing access to any MPEC is at the bottom of this page.


    Read MPEC 2024-C172 Read MPEC 2024-C174


    M.P.E.C. 2024-C173                            Issued 2024 February 14, 22:28 UT
    
         The Minor Planet Electronic Circulars contain information on unusual
             minor planets, routine data on comets and natural satellites,
             and occasional editorial announcements.  They are published
        on behalf of Division F of the International Astronomical Union by the
              Minor Planet Center, Smithsonian Astrophysical Observatory,
                              Cambridge, MA 02138, U.S.A.
    			  
                 Prepared using the Tamkin Foundation Computer Network
    
                                  MPC@CFA.HARVARD.EDU
                URL https://www.minorplanetcenter.net/    ISSN 1523-6714
    
                                    2024 CO5                                 
    
    
    Observations:
         K24C05O 1C2024 01 31.37769 12 27 19.44 +57 25 49.0          21.6 GVEC173G96
         K24C05O 1C2024 01 31.38293 12 27 19.93 +57 25 10.8          21.6 GVEC173G96
         K24C05O 1C2024 01 31.39344 12 27 20.62 +57 23 58.1          22.0 GVEC173G96
         K24C05O* C2024 02 13.63391012 37 59.791+20 42 08.25         20.51wXEC173F52
         K24C05O  C2024 02 13.64694812 37 59.060+20 39 34.41         20.41wXEC173F52
         K24C05O KC2024 02 13.99881112 38 03.33 +19 30 17.7          20.2 GVEC173L01
         K24C05O KC2024 02 13.99992312 38 03.28 +19 30 04.6          20.1 GVEC173L01
         K24C05O KC2024 02 14.00091012 38 03.24 +19 29 53.8          20.2 GVEC173L01
         K24C05O KC2024 02 14.00189912 38 03.21 +19 29 42.3          20.3 GVEC173L01
         K24C05O KC2024 02 14.00288812 38 03.14 +19 29 30.7          20.6 GVEC173L01
         K24C05O KC2024 02 14.00511112 38 03.09 +19 29 05.4          20.8 GVEC173L01
         K24C05O  C2024 02 14.26930012 38 03.018+18 37 59.45         20.2 GVEC173H01
         K24C05O  C2024 02 14.27341212 38 02.867+18 37 12.22         20.5 GVEC173H01
         K24C05O  C2024 02 14.28376112 38 02.449+18 35 13.87         20.2 GVEC173H01
         K24C05O  C2024 02 14.29014212 38 02.169+18 34 00.53         20.5 GVEC173H01
         K24C05O KC2024 02 14.33524 12 37 58.59 +18 25 14.9          20.6 GVEC173H36
         K24C05O KC2024 02 14.34294 12 37 58.17 +18 23 45.5          20.6 GVEC173H36
         K24C05O KC2024 02 14.35063 12 37 57.72 +18 22 16.9          20.6 GVEC173H36
    
    Observer details:
    F52 Pan-STARRS 2, Haleakala.  Observers J. Herman, T. Lowe, P. Minguez, A.
        Schultz, I. Smith.  Measurers K. Chambers, T. de Boer, J. Fairlamb, H.
        Gao, M. Huber, C.-C. Lin, E. Magnier, Y. Ramanjooloo, R. Wainscoat, R.
        Weryk.  1.8-m Ritchey-Chretien + CCD.
    G96 Mt. Lemmon Survey.  Observer J. K. Hogan.  Measurers B. Gray, D. Rankin,
        F. C. Shelly.  1.5-m reflector + 10K CCD.
    H01 Magdalena Ridge Observatory, Socorro.  Observers W. H. Ryan, E. V. Ryan.
        Measurer W. H. Ryan.  2.4-m f/8.9 Ritchey-Chretien + CCD.
    H36 Sandlot Observatory, Scranton.  Observer G. Hug.  .56 meter Reflector +
        CCD.
    L01 Visnjan Observatory, Tican.  Observer K. Korlevic.  1.0-m f/2.9 reflector
        + CCD.
    
    Orbital elements:
    2024 CO5                                                 Earth MOID = 0.0567 AU
    Epoch 2023 Sept. 13.0 TT = JDT 2460200.5                Veres                   
    M 296.47770              (2000.0)            P               Q                  
    n   0.44116035     Peri.  160.50574     -0.71420340     -0.69630924             
    a   1.7089856      Node   334.90809     +0.61783939     -0.57937207             
    e   0.3941446      Incl.    9.66312     +0.32891942     -0.42365251             
    P   2.23           H   24.89          G   0.15           U   8                  
    Residuals in seconds of arc
    240131 G96  0.2-  0.2-    240213 L01  0.4-  0.3-    240214 H01  0.1+  0.2-
    240131 G96 (0.7+  1.4-)   240214 L01  0.4-  0.3+    240214 H01  0.1+  0.2+
    240131 G96  0.2+  0.2+    240214 L01  0.2-  0.2+    240214 H01  0.1-  0.1+
    240213 F52  0.0   0.0     240214 L01  0.5-  0.1+    240214 H36  0.3+  0.1+
    240213 F52  0.1-  0.1-    240214 L01  0.2+  0.4+    240214 H36  0.3+  0.3-
    240213 L01  0.4-  0.1-    240214 H01  0.0   0.1-    240214 H36  0.2-  0.2+
    
    Ephemeris:
    2024 CO5                 a,e,i = 1.71, 0.39, 10                  q = 1.0354
    Date    TT    R. A. (2000) Decl.     Delta      r    Elong.  Phase     V
    2024 01 15    10 49 33.8 +77 23 37   0.1347  1.0567   119.6    54.0    22.6
    ...
    2024 01 30    12 23 57.0 +60 05 48   0.09012 1.0367   122.9    52.9    21.7
    ...
    2024 02 07    12 36 23.9 +41 18 32   0.07411 1.0358   130.5    46.4    21.1
    ...
    2024 02 13    12 38 07.6 +22 45 39   0.06967 1.0397   137.6    39.8    20.8
    2024 02 14    12 37 59.9 +19 31 13   0.06974 1.0407   138.6    38.8    20.7
    2024 02 15    12 37 46.7 +16 17 42   0.07004 1.0419   139.6    37.9    20.7
    ...
    2024 02 21    12 34 52.7 -01 35 36   0.07660 1.0508   142.8    34.7    20.9
    ...
    2024 02 29    12 28 05.8 -18 43 47   0.09532 1.0683   143.0    33.9    21.3
    ...
    2024 03 15    12 11 50.7 -33 28 12   0.1469  1.1161   143.6    31.9    22.3
    
    M. P. C. Staff               (C) Copyright 2024 MPC           M.P.E.C. 2024-C173
    


    Read MPEC 2024-C172 Read MPEC 2024-C174


    MPEC number:

    Enter an MPEC number in one of the following forms:

    • 1997-B01 (the full form)
    • J97B01 (the packed version of the full form)
    • B01 (the abbreviated form)